Date String (YYYY-MM-DD hh:mm:ss) UTC,Instrument flags,Ambient pressure (hPa),Sample flow (lpm),Bypass flow (lpm),Sample temperature (°C),Ambient temperature (°C),ASC tube jacket temperature (°C),LED temperature (°C),Box temperature (°C),Sample RH (%),Span deviation,Mass concentration (μg/m³),Mass concentration (μg/m³),Mass concentration (μg/m³)
DateTimeUTC,F1_M11,P_M11,Q1_M11,Q2_M11,T1_M11,T2_M11,T3_M11,T4_M11,T5_M11,U1_M11,ZSPAN_M11,X0_M11,X2_M11,X1_M11
2022-10-30 21:00:00,,0825.5,5.00,0.00,28.8,27.6,00.0,37.5,30.6,07.1,0000.0,0008.62,0004.11,0003.78
2022-10-30 21:01:00,,0825.5,5.01,0.00,28.8,27.6,00.0,37.5,30.6,07.2,0000.0,0008.64,0004.10,0003.77
2022-10-30 21:02:00,,0825.4,5.00,0.00,28.8,27.6,00.0,37.5,30.6,07.3,0000.0,0008.29,0004.05,0003.76
2022-10-30 21:03:00,,0825.5,5.01,0.00,28.8,27.6,00.0,37.5,30.6,07.1,0000.0,0007.66,0004.01,0003.74
2022-10-30 21:04:00,,0825.5,4.98,0.00,28.8,27.6,00.0,37.5,30.7,07.1,0000.0,0007.49,0003.96,0003.72
2022-10-30 21:05:00,,0825.5,5.00,0.00,28.8,27.6,00.0,37.5,30.7,07.1,0000.0,0007.63,0003.97,0003.73
2022-10-30 21:06:00,,0825.4,5.00,0.00,28.8,27.6,00.0,37.5,30.7,07.1,0000.0,0007.73,0004.01,0003.75
2022-10-30 21:07:00,,0825.5,5.01,0.00,28.8,27.6,00.0,37.6,30.7,07.1,0000.0,0007.71,0004.00,0003.73
2022-10-30 21:08:00,,0825.4,5.00,0.00,28.8,27.6,00.0,37.6,30.7,07.1,0000.0,0007.77,0003.99,0003.72
2022-10-30 21:09:00,,0825.4,5.00,0.00,28.8,27.6,00.0,37.6,30.7,07.1,0000.0,0008.42,0004.00,0003.73
2022-10-30 21:10:00,,0825.4,5.00,0.00,28.8,27.6,00.0,37.6,30.7,07.0,0000.0,0008.37,0004.00,0003.74
2022-10-30 21:11:00,,0825.4,5.00,0.00,28.9,27.6,00.0,37.6,30.7,07.2,0000.0,0008.54,0004.02,0003.73
2022-10-30 21:12:00,,0825.4,4.99,0.00,28.9,27.4,00.0,37.6,30.7,07.0,0000.0,0008.76,0004.04,0003.74
2022-10-30 21:13:00,,0825.4,5.01,0.00,28.8,27.4,00.0,37.6,30.6,07.0,0000.0,0008.72,0004.05,0003.76
2022-10-30 21:14:00,,0825.3,4.99,0.00,28.8,27.4,00.0,37.6,30.6,07.0,0000.0,0009.09,0004.08,0003.77
2022-10-30 21:15:00,,0825.3,5.00,0.00,28.8,27.5,00.0,37.6,30.7,07.0,0000.0,0008.84,0004.09,0003.78
2022-10-30 21:16:00,,0825.4,5.00,0.00,28.9,27.5,00.0,37.6,30.7,07.0,0000.0,0008.74,0004.10,0003.77
2022-10-30 21:17:00,,0825.3,4.99,0.00,28.9,27.5,00.0,37.6,30.7,07.0,0000.0,0008.79,0004.09,0003.76
2022-10-30 21:18:00,,0825.4,5.00,0.00,28.9,27.6,00.0,37.6,30.7,07.0,0000.0,0008.79,0004.08,0003.74
2022-10-30 21:19:00,,0825.4,5.00,0.00,28.9,27.6,00.0,37.6,30.7,07.0,0000.0,0008.84,0004.07,0003.73
2022-10-30 21:20:00,,0825.3,5.00,0.00,28.9,27.6,00.0,37.6,30.7,07.0,0000.0,0008.20,0004.07,0003.71
2022-10-30 21:21:00,,0825.3,5.00,0.00,28.9,27.6,00.0,37.7,30.7,07.0,0000.0,0008.20,0004.08,0003.70
2022-10-30 21:22:00,,0825.3,4.99,0.00,28.9,27.7,00.0,37.7,30.8,07.0,0000.0,0007.69,0004.08,0003.70
2022-10-30 21:23:00,,0825.3,5.00,0.00,28.9,27.7,00.0,37.7,30.8,07.0,0000.0,0007.44,0004.06,0003.68
2022-10-30 21:24:00,,0825.3,5.00,0.00,28.9,27.7,00.0,37.7,30.8,07.1,0000.0,0007.47,0004.05,0003.67
2022-10-30 21:25:00,,0825.3,5.00,0.00,29.0,27.8,00.0,37.7,30.8,07.2,0000.0,0006.96,0004.05,0003.65
2022-10-30 21:26:00,,0825.4,5.00,0.00,29.0,27.8,00.0,37.7,30.8,07.2,0000.0,0007.37,0004.03,0003.64
2022-10-30 21:27:00,,0825.4,5.00,0.00,29.0,27.8,00.0,37.7,30.9,07.3,0000.0,0007.68,0004.00,0003.62
2022-10-30 21:28:00,,0825.3,5.00,0.00,29.0,27.8,00.0,37.7,30.9,07.2,0000.0,0007.77,0004.02,0003.60
2022-10-30 21:29:00,,0825.3,5.01,0.00,29.0,27.8,00.0,37.7,30.9,07.2,0000.0,0008.66,0004.01,0003.60
2022-10-30 21:30:00,,0825.4,4.99,0.00,29.0,27.8,00.0,37.8,30.9,07.2,0000.0,0009.53,0004.04,0003.61
2022-10-30 21:31:00,,0825.4,5.00,0.00,29.1,27.8,00.0,37.8,30.9,07.3,0000.0,0009.93,0004.03,0003.61
2022-10-30 21:32:00,,0825.3,5.00,0.00,29.1,27.9,00.0,37.8,30.9,07.3,0000.0,0009.95,0004.02,0003.61
2022-10-30 21:33:00,,0825.4,5.00,0.00,29.1,27.9,00.0,37.8,30.9,07.1,0000.0,0010.38,0004.01,0003.62
2022-10-30 21:34:00,,0825.3,5.00,0.00,29.1,27.9,00.0,37.8,30.9,07.1,0000.0,0010.81,0004.02,0003.64
2022-10-30 21:35:00,,0825.3,5.00,0.00,29.1,27.9,00.0,37.8,30.9,07.0,0000.0,0010.95,0004.04,0003.66
2022-10-30 21:36:00,,0825.4,5.00,0.00,29.1,27.9,00.0,37.8,30.9,07.0,0000.0,0011.09,0004.05,0003.69
2022-10-30 21:37:00,,0825.4,5.00,0.00,29.1,27.9,00.0,37.8,30.9,07.0,0000.0,0010.88,0004.08,0003.72
2022-10-30 21:38:00,,0825.4,5.00,0.00,29.1,27.9,00.0,37.9,30.9,07.0,0000.0,0010.65,0004.12,0003.75
2022-10-30 21:39:00,,0825.3,5.00,0.00,29.1,27.8,00.0,37.9,30.9,07.0,0000.0,0010.43,0004.08,0003.79
2022-10-30 21:40:00,,0825.4,4.99,0.00,29.1,27.8,00.0,37.9,30.9,07.0,0000.0,0009.55,0004.10,0003.82
2022-10-30 21:41:00,,0825.4,5.00,0.00,29.1,27.9,00.0,37.9,31.0,07.0,0000.0,0008.71,0004.10,0003.84
2022-10-30 21:42:00,,0825.3,5.00,0.00,29.1,27.9,00.0,37.9,30.9,07.0,0000.0,0008.23,0004.12,0003.86
2022-10-30 21:43:00,,0825.3,5.00,0.00,29.1,27.8,00.0,37.9,30.9,07.0,0000.0,0008.75,0004.15,0003.89
2022-10-30 21:44:00,,0825.3,5.00,0.00,29.1,27.8,00.0,37.9,30.9,06.9,0000.0,0008.66,0004.20,0003.91
2022-10-30 21:45:00,,0825.3,5.00,0.00,29.1,27.8,00.0,37.9,30.9,06.9,0000.0,0008.23,0004.24,0003.93
2022-10-30 21:46:00,,0825.3,5.01,0.00,29.1,27.9,00.0,37.9,31.0,07.0,0000.0,0008.13,0004.26,0003.95
2022-10-30 21:47:00,,0825.3,4.99,0.00,29.2,27.9,00.0,37.9,31.0,07.0,0000.0,0008.20,0004.29,0003.96
2022-10-30 21:48:00,,0825.3,5.00,0.00,29.2,27.9,00.0,37.9,31.0,06.9,0000.0,0008.09,0004.30,0003.97
2022-10-30 21:49:00,,0825.3,5.00,0.00,29.2,28.0,00.0,37.9,31.0,07.0,0000.0,0008.89,0004.31,0003.97
2022-10-30 21:50:00,,0825.3,5.00,0.00,29.2,28.0,00.0,37.9,31.1,07.0,0000.0,0009.00,0004.35,0003.98
2022-10-30 21:51:00,,0825.3,5.00,0.00,29.2,28.0,00.0,38.0,31.1,07.0,0000.0,0009.05,0004.38,0003.99
2022-10-30 21:52:00,,0825.3,5.00,0.00,29.2,28.0,00.0,38.0,31.1,07.0,0000.0,0009.11,0004.39,0004.00
2022-10-30 21:53:00,,0825.4,5.00,0.00,29.3,28.1,00.0,38.0,31.1,07.0,0000.0,0009.13,0004.41,0004.02
2022-10-30 21:54:00,,0825.3,4.98,0.00,29.3,28.1,00.0,38.0,31.1,06.9,0000.0,0008.80,0004.40,0004.02
2022-10-30 21:55:00,,0825.3,5.01,0.00,29.3,28.1,00.0,38.0,31.1,07.0,0000.0,0008.33,0004.40,0004.02
2022-10-30 21:56:00,,0825.4,5.00,0.00,29.3,28.1,00.0,38.0,31.2,07.0,0000.0,0008.29,0004.37,0004.00
2022-10-30 21:57:00,,0825.3,5.00,0.00,29.3,28.1,00.0,38.0,31.2,07.0,0000.0,0008.26,0004.34,0003.99
2022-10-30 21:58:00,,0825.3,4.98,0.00,29.3,28.2,00.0,38.0,31.2,07.0,0000.0,0008.10,0004.31,0003.98
2022-10-30 21:59:00,,0825.3,5.00,0.00,29.4,28.1,00.0,38.1,31.2,06.9,0000.0,0007.98,0004.29,0003.98
